User: anonymous   Login
Location: Newark
(40.9833°N, 0.0333°W)
Time: 12:19:18
(UTC+00:00)
Language:

CUTE-I - Orbit

View from above orbital plane
View from above orbital plane
View from above satellite
View from above satellite

Ground track
Ground track

The orbit data is extracted from the following two-line orbital elements,

1 27844U 03031E   19138.48599457  .00000048  00000-0  41323-4 0  9994
2 27844  98.6846 147.1653 0010963 118.3523 241.8762 14.22176393823851
Epoch (UTC): 18 May 2019 11:39:49
Eccentricity: 0.0010963
inclination: 98.6846°
perigee height: 810 km
apogee height: 826 km
right ascension of ascending node: 147.1653°
argument of perigee: 118.3523°
revolutions per day: 14.22176393
mean anomaly at epoch: 241.8762°
orbit number at epoch: 82385

The dashed part of the orbit path shows where the satellite is in the earth's shadow,  

DLR